DW4870 Weather Reports


time (UTC)temp
C
wind
direction
speed
KPH
gust
KPH
rain 1hr
cm
rain 24hr
cm
rain mn
cm
humidity
%
barometer
mb
20260505061521 12 203 0.0 3.2 0.00 0.00 0.00 83 1016.6
20260505060517 12 0.0 0.0 0.00 0.00 0.00 84 1016.6
20260505055547 12 0.0 0.0 0.00 0.00 0.00 83 1016.6
20260505054545 12 0.0 0.0 0.00 0.00 0.00 83 1016.4
20260505053532 12 0.0 0.0 0.00 0.00 0.00 83 1016.3
20260505052549 12 0.0 0.0 0.00 0.00 0.00 82 1016.2
20260505051524 12 0.0 0.0 0.00 0.00 0.00 82 1016.2
20260505050542 12 0.0 0.0 0.00 0.00 0.00 82 1016.2
20260505041544 12 0.0 0.0 0.00 0.00 0.00 81 1016.1
20260505040539 12 0.0 0.0 0.00 0.00 0.00 79 1016.1
20260505035537 13 293 0.0 1.6 0.00 0.00 0.00 78 1016.1
20260505034540 13 0.0 0.0 0.00 0.00 0.00 76 1016.2
20260505033529 13 0.0 0.0 0.00 0.00 0.00 75 1016.3
20260505032521 13 0.0 0.0 0.00 0.00 0.00 75 1016.3
20260505031516 13 0.0 0.0 0.00 0.00 0.00 74 1016.4
20260505030541 13 0.0 0.0 0.00 0.00 0.00 74 1016.5
20260505025543 13 0.0 0.0 0.00 0.00 0.00 73 1016.7
20260505024526 13 0.0 0.0 0.00 0.00 0.00 73 1016.8
20260505023518 13 0.0 0.0 0.00 0.00 0.00 73 1017.0
20260505022522 13 0.0 0.0 0.00 0.00 0.00 72 1017.0
20260505021605 13 0.0 0.0 0.00 0.00 0.00 71 1017.0
20260505020537 13 0.0 0.0 0.00 0.00 0.00 71 1017.0
20260505015539 13 0.0 0.0 0.00 0.00 0.00 71 1017.0
20260505014535 14 0.0 0.0 0.00 0.00 0.00 71 1017.0
20260505013527 14 0.0 0.0 0.00 0.00 0.00 70 1017.1
20260505012540 13 0.0 0.0 0.00 0.00 0.00 70 1017.1
20260505011518 13 0.0 0.0 0.00 0.00 0.00 70 1017.2
20260505010539 13 203 3.2 9.7 0.00 0.00 0.00 69 1017.2
20260505005535 13 0.0 0.0 0.00 0.00 0.00 69 1017.3
20260505004539 13 0.0 0.0 0.00 0.00 0.00 69 1017.5
20260505003533 13 248 3.2 12.9 0.00 0.00 0.00 68 1017.4
20260505002536 13 0.0 0.0 0.00 0.00 0.00 68 1017.7
20260505001533 13 0.0 0.0 0.00 0.00 0.00 67 1018.0
20260505000526 13 0.0 0.0 0.00 0.00 0.00 67 1018.1
20260505000031 13 0.0 0.0 0.00 0.00 0.00 67 1018.2
20260504235044 13 0.0 0.0 0.00 0.00 0.00 67 1018.3
20260504234046 13 0.0 0.0 0.00 0.00 0.00 67 1018.3
20260504233017 13 0.0 0.0 0.00 0.00 0.00 67 1018.4
20260504232103 13 0.0 0.0 0.00 0.00 0.00 66 1018.7
20260504231046 14 0.0 0.0 0.00 0.00 0.00 66 1018.7
20260504230058 14 0.0 0.0 0.00 0.00 0.00 66 1018.8
20260504225029 14 0.0 0.0 0.00 0.00 0.00 65 1018.9
20260504224112 14 0.0 0.0 0.00 0.00 0.00 65 1019.0
20260504223033 14 0.0 0.0 0.00 0.00 0.00 65 1019.1
20260504222033 14 0.0 0.0 0.00 0.00 0.00 65 1019.1
20260504221034 14 0.0 0.0 0.00 0.00 0.00 65 1019.0
20260504220031 14 0.0 0.0 0.00 0.00 0.00 64 1019.1
20260504215021 14 0.0 0.0 0.00 0.00 0.00 64 1019.0
20260504214046 14 0.0 0.0 0.00 0.00 0.00 64 1019.1
20260504213037 14 0.0 0.0 0.00 0.00 0.00 63 1019.1
20260504212026 14 0.0 0.0 0.00 0.00 0.00 63 1019.1
20260504211021 14 0.0 0.0 0.00 0.00 0.00 62 1019.0
20260504210049 14 0.0 0.0 0.00 0.00 0.00 62 1019.1
20260504205038 15 0.0 0.0 0.00 0.00 0.00 62 1019.3
20260504204040 15 0.0 0.0 0.00 0.00 0.00 61 1019.4
20260504203032 15 0.0 0.0 0.00 0.00 0.00 61 1019.3
20260504202042 15 0.0 0.0 0.00 0.00 0.00 61 1019.1
20260504201047 15 0.0 0.0 0.00 0.00 0.00 60 1019.2
20260504200038 15 0.0 0.0 0.00 0.00 0.00 59 1019.1
20260504195032 15 0.0 0.0 0.00 0.00 0.00 59 1019.1
20260504194031 15 0.0 0.0 0.00 0.00 0.00 59 1019.0
20260504193023 16 0.0 0.0 0.00 0.00 0.00 58 1019.0
20260504192045 16 0.0 0.0 0.00 0.00 0.00 58 1018.8
20260504191037 16 0.0 0.0 0.00 0.00 0.00 57 1018.7
20260504190020 16 0.0 0.0 0.00 0.00 0.00 56 1018.7
20260504185047 16 0.0 0.0 0.00 0.00 0.00 56 1018.7
20260504184033 16 0.0 0.0 0.00 0.00 0.00 55 1018.6
20260504183027 17 0.0 0.0 0.00 0.00 0.00 55 1018.6
20260504182018 17 0.0 0.0 0.00 0.00 0.00 55 1018.6
20260504181044 17 0.0 0.0 0.00 0.00 0.00 54 1018.5
20260504180039 18 0.0 0.0 0.00 0.00 0.00 54 1018.3
20260504175103 18 0.0 0.0 0.00 0.00 0.00 55 1018.1
20260504174037 18 0.0 0.0 0.00 0.00 0.00 55 1018.1
20260504173058 18 113 1.6 6.4 0.00 0.00 0.00 55 1018.3
20260504172028 18 90 1.6 1.6 0.00 0.00 0.00 56 1018.3
20260504171039 19 0.0 0.0 0.00 0.00 0.00 56 1018.2
20260504110532 22 0.0 0.0 0.00 0.00 0.00 49 1019.9
20260504100549 21 0.0 0.0 0.00 0.00 0.00 58 1020.5
20260504081553 18 135 1.6 3.2 0.00 0.00 0.00 68 1020.9
20260504080528 17 0.0 0.0 0.00 0.00 0.00 68 1021.0